{"data":{"norad_id":39253,"intl_designator":"2013-049A","name":"HISAKI (SPRINT-A)","alt_names":[],"object_type":"PAYLOAD","status":"ACTIVE","operator":null,"country":"JPN","launch_date":"2013-09-14","launch_site_code":"KSCUT","launch_vehicle":null,"mission":null,"orbit_class":"UNKNOWN","rcs_meters":1.9392,"size_class":null,"mass_kg":null,"dimensions":null,"purposes":["science"],"wikipedia_slug":null,"has_3d_model":false,"image_url":null,"decayed_at":null,"tle_current":{"epoch":"2026-05-24T20:32:09.809376Z","epoch_age_seconds":90625,"freshness":"FRESH","line1":"1 39253U 13049A   26144.85566909  .00000139  00000+0  97353-4 0  9997","line2":"2 39253  29.7217 338.6285 0136782 187.8101 172.0333 13.55541613628256","mean_motion":13.55541613,"eccentricity":0.0136782,"inclination_deg":29.7217,"raan_deg":338.6285,"arg_perigee_deg":187.8101,"mean_anomaly_deg":172.0333,"bstar":9.7353e-5,"rev_number":62825,"period_min":106.2306008307,"perigee_km":950.30920027307,"apogee_km":1153.5693387321,"semimajor_km":7430.0762695026,"source":"CELESTRAK","updated_at":"2026-05-25T13:38:24.641698Z"}}}